Location: ?????????
(54.7630°N, 39.4991°E)
Time: 07:05:17
(UTC+00:00)

Cosmos 2369 - Pass Details

Date: 14 April 2026
Orbit: 837 x 855 km, 71.0° (Epoch: 12 May)

Event Time Altitude Azimuth Distance (km) Brightness Sun altitude
Rises 22:37:30 0° 326° (NW) 3,415 7.3 -23.6°
Reaches altitude 10° 22:40:02 10° 331° (NNW) 2,479 6.6 -23.5°
Maximum altitude 22:45:36 53° 48° (NE) 1,037 4.4 -23.2°
Drops below altitude 10° 22:51:10 10° 126° (SE) 2,478 6.0 -22.9°
Sets 22:53:41 0° 131° (SE) 3,412 6.7 -22.7°
